Year,Month,Day,Hour,Minute,Value (Times are PST for temperature in C)
2006,12,10,00,00,2.30
2006,12,10,00,01,2.30
2006,12,10,00,02,2.30
2006,12,10,00,03,2.30
2006,12,10,00,04,2.30
2006,12,10,00,05,2.30
2006,12,10,00,06,2.30
2006,12,10,00,07,2.30
2006,12,10,00,08,2.30
2006,12,10,00,09,2.40
2006,12,10,00,10,2.40
2006,12,10,00,11,2.40
2006,12,10,00,12,2.40
2006,12,10,00,13,2.40
2006,12,10,00,14,2.40
2006,12,10,00,15,2.40
2006,12,10,00,16,2.40
2006,12,10,00,17,2.40
2006,12,10,00,18,2.40
2006,12,10,00,19,2.40
2006,12,10,00,20,2.50
2006,12,10,00,21,2.50
2006,12,10,00,22,2.50
2006,12,10,00,23,2.50
2006,12,10,00,24,2.40
2006,12,10,00,25,2.40
2006,12,10,00,26,2.40
2006,12,10,00,27,2.40
2006,12,10,00,28,2.40
2006,12,10,00,29,2.40
2006,12,10,00,30,2.40
2006,12,10,00,31,2.30
2006,12,10,00,32,2.30
2006,12,10,00,33,2.30
2006,12,10,00,34,2.30
2006,12,10,00,35,2.30
2006,12,10,00,36,2.20
2006,12,10,00,37,2.20
2006,12,10,00,38,2.20
2006,12,10,00,39,2.20
2006,12,10,00,40,2.20
2006,12,10,00,41,2.20
2006,12,10,00,42,2.20
2006,12,10,00,43,2.20
2006,12,10,00,44,2.20
2006,12,10,00,45,2.20
2006,12,10,00,46,2.20
2006,12,10,00,47,2.20
2006,12,10,00,48,2.20
2006,12,10,00,49,2.20
2006,12,10,00,50,2.20
2006,12,10,00,51,2.20
2006,12,10,00,52,2.20
2006,12,10,00,53,2.20
2006,12,10,00,54,2.20
2006,12,10,00,55,2.30
2006,12,10,00,56,2.30
2006,12,10,00,57,2.40
2006,12,10,00,58,2.40
2006,12,10,00,59,2.40
2006,12,10,01,00,2.40
2006,12,10,01,01,2.40
2006,12,10,01,02,2.40
2006,12,10,01,03,2.40
2006,12,10,01,04,2.30
2006,12,10,01,05,2.30
2006,12,10,01,06,2.20
2006,12,10,01,07,2.20
2006,12,10,01,08,2.20
2006,12,10,01,09,2.10
2006,12,10,01,10,2.10
2006,12,10,01,11,2.10
2006,12,10,01,12,2.10
2006,12,10,01,13,2.10
2006,12,10,01,14,2.10
2006,12,10,01,15,2.10
2006,12,10,01,16,2.10
2006,12,10,01,17,2.10
2006,12,10,01,18,2.10
2006,12,10,01,19,2.10
2006,12,10,01,20,2.10
2006,12,10,01,21,2.10
2006,12,10,01,22,2.10
2006,12,10,01,23,2.10
2006,12,10,01,24,2.10
2006,12,10,01,25,2.10
2006,12,10,01,26,2.10
2006,12,10,01,27,2.10
2006,12,10,01,28,2.20
2006,12,10,01,29,2.10
2006,12,10,01,30,2.10
2006,12,10,01,31,2.20
2006,12,10,01,32,2.20
2006,12,10,01,33,2.20
2006,12,10,01,34,2.20
2006,12,10,01,35,2.20
2006,12,10,01,36,2.20
2006,12,10,01,37,2.20
2006,12,10,01,38,2.20
2006,12,10,01,39,2.20
2006,12,10,01,40,2.20
2006,12,10,01,41,2.20
2006,12,10,01,42,2.20
2006,12,10,01,43,2.20
2006,12,10,01,44,2.20
2006,12,10,01,45,2.20
2006,12,10,01,46,2.20
2006,12,10,01,47,2.20
2006,12,10,01,48,2.20
2006,12,10,01,49,2.10
2006,12,10,01,50,2.10
2006,12,10,01,51,2.10
2006,12,10,01,52,2.10
2006,12,10,01,53,2.10
2006,12,10,01,54,2.10
2006,12,10,01,55,2.20
2006,12,10,01,56,2.20
2006,12,10,01,57,2.20
2006,12,10,01,58,2.20
2006,12,10,01,59,2.20
2006,12,10,02,00,2.20
2006,12,10,02,01,2.20
2006,12,10,02,02,2.20
2006,12,10,02,03,2.20
2006,12,10,02,04,2.20
2006,12,10,02,05,2.20
2006,12,10,02,06,2.20
2006,12,10,02,07,2.20
2006,12,10,02,08,2.20
2006,12,10,02,09,2.20
2006,12,10,02,10,2.20
2006,12,10,02,11,2.20
2006,12,10,02,12,2.20
2006,12,10,02,13,2.20
2006,12,10,02,14,2.20
2006,12,10,02,15,2.20
2006,12,10,02,16,2.20
2006,12,10,02,17,2.20
2006,12,10,02,18,2.10
2006,12,10,02,19,2.10
2006,12,10,02,20,2.10
2006,12,10,02,21,2.10
2006,12,10,02,22,2.10
2006,12,10,02,23,2.20
2006,12,10,02,24,2.20
2006,12,10,02,25,2.20
2006,12,10,02,26,2.20
2006,12,10,02,27,2.20
2006,12,10,02,28,2.20
2006,12,10,02,29,2.20
2006,12,10,02,30,2.20
2006,12,10,02,31,2.20
2006,12,10,02,32,2.30
2006,12,10,02,33,2.30
2006,12,10,02,34,2.30
2006,12,10,02,35,2.30
2006,12,10,02,36,2.30
2006,12,10,02,37,2.30
2006,12,10,02,38,2.30
2006,12,10,02,39,2.30
2006,12,10,02,40,2.30
2006,12,10,02,41,2.30
2006,12,10,02,42,2.30
2006,12,10,02,43,2.30
2006,12,10,02,44,2.30
2006,12,10,02,45,2.30
2006,12,10,02,46,2.30
2006,12,10,02,47,2.30
2006,12,10,02,48,2.30
2006,12,10,02,49,2.30
2006,12,10,02,50,2.30
2006,12,10,02,51,2.30
2006,12,10,02,52,2.20
2006,12,10,02,53,2.20
2006,12,10,02,54,2.20
2006,12,10,02,55,2.20
2006,12,10,02,56,2.20
2006,12,10,02,57,2.20
2006,12,10,02,58,2.20
2006,12,10,02,59,2.20
2006,12,10,03,00,2.20
2006,12,10,03,01,2.20
2006,12,10,03,02,2.20
2006,12,10,03,03,2.20
2006,12,10,03,04,2.40
2006,12,10,03,05,2.50
2006,12,10,03,06,2.60
2006,12,10,03,07,2.60
2006,12,10,03,08,2.70
2006,12,10,03,09,2.80
2006,12,10,03,10,2.80
2006,12,10,03,11,2.90
2006,12,10,03,12,2.90
2006,12,10,03,13,3.10
2006,12,10,03,14,3.20
2006,12,10,03,15,3.30
2006,12,10,03,16,3.50
2006,12,10,03,17,3.70
2006,12,10,03,18,3.80
2006,12,10,03,19,3.90
2006,12,10,03,20,3.90
2006,12,10,03,21,3.90
2006,12,10,03,22,3.80
2006,12,10,03,23,3.90
2006,12,10,03,24,4.00
2006,12,10,03,25,4.00
2006,12,10,03,26,4.00
2006,12,10,03,27,4.10
2006,12,10,03,28,4.20
2006,12,10,03,29,4.20
2006,12,10,03,30,4.20
2006,12,10,03,31,4.20
2006,12,10,03,32,4.20
2006,12,10,03,33,4.20
2006,12,10,03,34,4.30
2006,12,10,03,35,4.30
2006,12,10,03,36,4.30
2006,12,10,03,37,4.30
2006,12,10,03,38,4.40
2006,12,10,03,39,4.40
2006,12,10,03,40,4.40
2006,12,10,03,41,4.40
2006,12,10,03,42,4.40
2006,12,10,03,43,4.40
2006,12,10,03,44,4.50
2006,12,10,03,45,4.50
2006,12,10,03,46,4.60
2006,12,10,03,47,4.70
2006,12,10,03,48,4.70
2006,12,10,03,49,4.70
2006,12,10,03,50,4.70
2006,12,10,03,51,4.70
2006,12,10,03,52,4.60
2006,12,10,03,53,4.60
2006,12,10,03,54,4.60
2006,12,10,03,55,4.60
2006,12,10,03,56,4.60
2006,12,10,03,57,4.60
2006,12,10,03,58,4.50
2006,12,10,03,59,4.50
2006,12,10,04,00,4.50
2006,12,10,04,01,4.60
2006,12,10,04,02,4.60
2006,12,10,04,03,4.60
2006,12,10,04,04,4.60
2006,12,10,04,05,4.60
2006,12,10,04,06,4.70
2006,12,10,04,07,4.70
2006,12,10,04,08,4.60
2006,12,10,04,09,4.60
2006,12,10,04,10,4.60
2006,12,10,04,11,4.50
2006,12,10,04,12,4.50
2006,12,10,04,13,4.50
2006,12,10,04,14,4.40
2006,12,10,04,15,4.50
2006,12,10,04,16,4.60
2006,12,10,04,17,4.70
2006,12,10,04,18,4.70
2006,12,10,04,19,4.70
2006,12,10,04,20,4.70
2006,12,10,04,21,4.70
2006,12,10,04,22,4.70
2006,12,10,04,23,4.60
2006,12,10,04,24,4.50
2006,12,10,04,25,4.50
2006,12,10,04,26,4.50
2006,12,10,04,27,4.60
2006,12,10,04,28,4.60
2006,12,10,04,29,4.60
2006,12,10,04,30,4.60
2006,12,10,04,31,4.60
2006,12,10,04,32,4.60
2006,12,10,04,33,4.70
2006,12,10,04,34,4.80
2006,12,10,04,35,4.90
2006,12,10,04,36,4.90
2006,12,10,04,37,4.90
2006,12,10,04,38,5.00
2006,12,10,04,39,5.00
2006,12,10,04,40,5.00
2006,12,10,04,41,5.10
2006,12,10,04,42,5.00
2006,12,10,04,43,5.00
2006,12,10,04,44,5.10
2006,12,10,04,45,5.10
2006,12,10,04,46,5.10
2006,12,10,04,47,5.10
2006,12,10,04,48,5.10
2006,12,10,04,49,5.10
2006,12,10,04,50,5.10
2006,12,10,04,51,5.10
2006,12,10,04,52,5.10
2006,12,10,04,53,5.10
2006,12,10,04,54,5.00
2006,12,10,04,55,5.10
2006,12,10,04,56,5.10
2006,12,10,04,57,5.20
2006,12,10,04,58,5.20
2006,12,10,04,59,5.10
2006,12,10,05,00,5.10
2006,12,10,05,01,5.00
2006,12,10,05,02,5.00
2006,12,10,05,03,4.90
2006,12,10,05,04,4.90
2006,12,10,05,05,5.00
2006,12,10,05,06,4.90
2006,12,10,05,07,4.90
2006,12,10,05,08,4.90
2006,12,10,05,09,4.80
2006,12,10,05,10,4.80
2006,12,10,05,11,4.80
2006,12,10,05,12,4.70
2006,12,10,05,13,4.70
2006,12,10,05,14,4.70
2006,12,10,05,15,4.70
2006,12,10,05,16,4.60
2006,12,10,05,17,4.60
2006,12,10,05,18,4.60
2006,12,10,05,19,4.60
2006,12,10,05,20,4.60
2006,12,10,05,21,4.50
2006,12,10,05,22,4.50
2006,12,10,05,23,4.40
2006,12,10,05,24,4.40
2006,12,10,05,25,4.40
2006,12,10,05,26,4.50
2006,12,10,05,27,4.50
2006,12,10,05,28,4.50
2006,12,10,05,29,4.60
2006,12,10,05,30,4.60
2006,12,10,05,31,4.60
2006,12,10,05,32,4.60
2006,12,10,05,33,4.60
2006,12,10,05,34,4.50
2006,12,10,05,35,4.50
2006,12,10,05,36,4.50
2006,12,10,05,37,4.50
2006,12,10,05,38,4.50
2006,12,10,05,39,4.50
2006,12,10,05,40,4.50
2006,12,10,05,41,4.50
2006,12,10,05,42,4.50
2006,12,10,05,43,4.50
2006,12,10,05,44,4.50
2006,12,10,05,45,4.50
2006,12,10,05,46,4.40
2006,12,10,05,47,4.40
2006,12,10,05,48,4.40
2006,12,10,05,49,4.40
2006,12,10,05,50,4.40
2006,12,10,05,51,4.40
2006,12,10,05,52,4.40
2006,12,10,05,53,4.40
2006,12,10,05,54,4.40
2006,12,10,05,55,4.40
2006,12,10,05,56,4.40
2006,12,10,05,57,4.40
2006,12,10,05,58,4.40
2006,12,10,05,59,4.40
2006,12,10,06,00,4.40
2006,12,10,06,01,4.40
2006,12,10,06,02,4.30
2006,12,10,06,03,4.20
2006,12,10,06,04,4.10
2006,12,10,06,05,4.10
2006,12,10,06,06,4.00
2006,12,10,06,07,4.00
2006,12,10,06,08,3.90
2006,12,10,06,09,3.90
2006,12,10,06,10,3.90
2006,12,10,06,11,3.90
2006,12,10,06,12,3.90
2006,12,10,06,13,3.90
2006,12,10,06,14,3.90
2006,12,10,06,15,3.80
2006,12,10,06,16,3.80
2006,12,10,06,17,3.80
2006,12,10,06,18,3.80
2006,12,10,06,19,3.80
2006,12,10,06,20,3.80
2006,12,10,06,21,3.70
2006,12,10,06,22,3.70
2006,12,10,06,23,3.60
2006,12,10,06,24,3.60
2006,12,10,06,25,3.60
2006,12,10,06,26,3.60
2006,12,10,06,27,3.70
2006,12,10,06,28,3.70
2006,12,10,06,29,3.70
2006,12,10,06,30,3.70
2006,12,10,06,31,3.70
2006,12,10,06,32,3.70
2006,12,10,06,33,3.70
2006,12,10,06,34,3.70
2006,12,10,06,35,3.70
2006,12,10,06,36,3.60
2006,12,10,06,37,3.60
2006,12,10,06,38,3.60
2006,12,10,06,39,3.50
2006,12,10,06,40,3.50
2006,12,10,06,41,3.50
2006,12,10,06,42,3.40
2006,12,10,06,43,3.40
2006,12,10,06,44,3.40
2006,12,10,06,45,3.50
2006,12,10,06,46,3.50
2006,12,10,06,47,3.50
2006,12,10,06,48,3.40
2006,12,10,06,49,3.40
2006,12,10,06,50,3.30
2006,12,10,06,51,3.30
2006,12,10,06,52,3.30
2006,12,10,06,53,3.40
2006,12,10,06,54,3.40
2006,12,10,06,55,3.40
2006,12,10,06,56,3.40
2006,12,10,06,57,3.40
2006,12,10,06,58,3.30
2006,12,10,06,59,3.30
2006,12,10,07,00,3.30
2006,12,10,07,01,3.30
2006,12,10,07,02,3.30
2006,12,10,07,03,3.30
2006,12,10,07,04,3.30
2006,12,10,07,05,3.30
2006,12,10,07,06,3.30
2006,12,10,07,07,3.30
2006,12,10,07,08,3.30
2006,12,10,07,09,3.30
2006,12,10,07,10,3.30
2006,12,10,07,11,3.30
2006,12,10,07,12,3.30
2006,12,10,07,13,3.30
2006,12,10,07,14,3.30
2006,12,10,07,15,3.30
2006,12,10,07,16,3.30
2006,12,10,07,17,3.40
2006,12,10,07,18,3.40
2006,12,10,07,19,3.40
2006,12,10,07,20,3.40
2006,12,10,07,21,3.40
2006,12,10,07,22,3.40
2006,12,10,07,23,3.40
2006,12,10,07,24,3.40
2006,12,10,07,25,3.40
2006,12,10,07,26,3.50
2006,12,10,07,27,3.50
2006,12,10,07,28,3.50
2006,12,10,07,29,3.50
2006,12,10,07,30,3.50
2006,12,10,07,31,3.50
2006,12,10,07,32,3.50
2006,12,10,07,33,3.40
2006,12,10,07,34,3.40
2006,12,10,07,35,3.40
2006,12,10,07,36,3.50
2006,12,10,07,37,3.50
2006,12,10,07,38,3.50
2006,12,10,07,39,3.50
2006,12,10,07,40,3.50
2006,12,10,07,41,3.50
2006,12,10,07,42,3.50
2006,12,10,07,43,3.50
2006,12,10,07,44,3.60
2006,12,10,07,45,3.60
2006,12,10,07,46,3.60
2006,12,10,07,47,3.70
2006,12,10,07,48,3.70
2006,12,10,07,49,3.70
2006,12,10,07,50,3.70
2006,12,10,07,51,3.70
2006,12,10,07,52,3.70
2006,12,10,07,53,3.70
2006,12,10,07,54,3.70
2006,12,10,07,55,3.60
2006,12,10,07,56,3.60
2006,12,10,07,57,3.60
2006,12,10,07,58,3.50
2006,12,10,07,59,3.50
2006,12,10,08,00,3.50
2006,12,10,08,01,3.60
2006,12,10,08,02,3.60
2006,12,10,08,03,3.50
2006,12,10,08,04,3.50
2006,12,10,08,05,3.50
2006,12,10,08,06,3.50
2006,12,10,08,07,3.50
2006,12,10,08,08,3.50
2006,12,10,08,09,3.60
2006,12,10,08,10,3.60
2006,12,10,08,11,3.70
2006,12,10,08,12,3.70
2006,12,10,08,13,3.70
2006,12,10,08,14,3.60
2006,12,10,08,15,3.60
2006,12,10,08,16,3.60
2006,12,10,08,17,3.60
2006,12,10,08,18,3.60
2006,12,10,08,19,3.60
2006,12,10,08,20,3.70
2006,12,10,08,21,3.70
2006,12,10,08,22,3.80
2006,12,10,08,23,3.80
2006,12,10,08,24,3.80
2006,12,10,08,25,3.80
2006,12,10,08,26,3.90
2006,12,10,08,27,3.90
2006,12,10,08,28,3.90
2006,12,10,08,29,3.90
2006,12,10,08,30,3.90
2006,12,10,08,31,3.90
2006,12,10,08,32,3.90
2006,12,10,08,33,4.00
2006,12,10,08,34,4.00
2006,12,10,08,35,4.10
2006,12,10,08,36,4.10
2006,12,10,08,37,4.10
2006,12,10,08,38,4.10
2006,12,10,08,39,4.10
2006,12,10,08,40,4.10
2006,12,10,08,41,4.10
2006,12,10,08,42,4.10
2006,12,10,08,43,4.20
2006,12,10,08,44,4.20
2006,12,10,08,45,4.20
2006,12,10,08,46,4.20
2006,12,10,08,47,4.20
2006,12,10,08,48,4.30
2006,12,10,08,49,4.30
2006,12,10,08,50,4.30
2006,12,10,08,51,4.30
2006,12,10,08,52,4.40
2006,12,10,08,53,4.40
2006,12,10,08,54,4.40
2006,12,10,08,55,4.50
2006,12,10,08,56,4.50
2006,12,10,08,57,4.50
2006,12,10,08,58,4.60
2006,12,10,08,59,4.60
2006,12,10,09,00,4.60
2006,12,10,09,01,4.60
2006,12,10,09,02,4.60
2006,12,10,09,03,4.50
2006,12,10,09,04,4.60
2006,12,10,09,05,4.50
2006,12,10,09,06,4.50
2006,12,10,09,07,4.50
2006,12,10,09,08,4.50
2006,12,10,09,09,4.40
2006,12,10,09,10,4.50
2006,12,10,09,11,4.50
2006,12,10,09,12,4.50
2006,12,10,09,13,4.60
2006,12,10,09,14,4.50
2006,12,10,09,15,4.50
2006,12,10,09,16,4.50
2006,12,10,09,17,4.50
2006,12,10,09,18,4.50
2006,12,10,09,19,4.60
2006,12,10,09,20,4.60
2006,12,10,09,21,4.60
2006,12,10,09,22,4.60
2006,12,10,09,23,4.60
2006,12,10,09,24,4.70
2006,12,10,09,25,4.70
2006,12,10,09,26,4.80
2006,12,10,09,27,4.80
2006,12,10,09,28,4.80
2006,12,10,09,29,4.80
2006,12,10,09,30,4.80
2006,12,10,09,31,4.80
2006,12,10,09,32,4.80
2006,12,10,09,33,4.80
2006,12,10,09,34,4.90
2006,12,10,09,35,4.90
2006,12,10,09,36,4.90
2006,12,10,09,37,4.90
2006,12,10,09,38,4.90
2006,12,10,09,39,5.00
2006,12,10,09,40,5.10
2006,12,10,09,41,5.10
2006,12,10,09,42,5.10
2006,12,10,09,43,5.10
2006,12,10,09,44,5.10
2006,12,10,09,45,5.20
2006,12,10,09,46,5.20
2006,12,10,09,47,5.20
2006,12,10,09,48,5.30
2006,12,10,09,49,5.30
2006,12,10,09,50,5.30
2006,12,10,09,51,5.30
2006,12,10,09,52,5.30
2006,12,10,09,53,5.30
2006,12,10,09,54,5.30
2006,12,10,09,55,5.40
2006,12,10,09,56,5.40
2006,12,10,09,57,5.40
2006,12,10,09,58,5.40
2006,12,10,09,59,5.40
2006,12,10,10,00,5.40
2006,12,10,10,01,5.30
2006,12,10,10,02,5.30
2006,12,10,10,03,5.30
2006,12,10,10,04,5.30
2006,12,10,10,05,5.30
2006,12,10,10,06,5.30
2006,12,10,10,07,5.30
2006,12,10,10,08,5.30
2006,12,10,10,09,5.30
2006,12,10,10,10,5.30
2006,12,10,10,11,5.30
2006,12,10,10,12,5.30
2006,12,10,10,13,5.40
2006,12,10,10,14,5.40
2006,12,10,10,15,5.40
2006,12,10,10,16,5.30
2006,12,10,10,17,5.30
2006,12,10,10,18,5.30
2006,12,10,10,19,5.30
2006,12,10,10,20,5.30
2006,12,10,10,21,5.30
2006,12,10,10,22,5.30
2006,12,10,10,23,5.30
2006,12,10,10,24,5.30
2006,12,10,10,25,5.30
2006,12,10,10,26,5.20
2006,12,10,10,27,5.20
2006,12,10,10,28,5.20
2006,12,10,10,29,5.20
2006,12,10,10,30,5.20
2006,12,10,10,31,5.20
2006,12,10,10,32,5.20
2006,12,10,10,33,5.20
2006,12,10,10,34,5.20
2006,12,10,10,35,5.20
2006,12,10,10,36,5.20
2006,12,10,10,37,5.10
2006,12,10,10,38,5.10
2006,12,10,10,39,5.10
2006,12,10,10,40,5.10
2006,12,10,10,41,5.10
2006,12,10,10,42,5.10
2006,12,10,10,43,5.10
2006,12,10,10,44,5.10
2006,12,10,10,45,5.10
2006,12,10,10,46,5.20
2006,12,10,10,47,5.20
2006,12,10,10,48,5.30
2006,12,10,10,49,5.30
2006,12,10,10,50,5.30
2006,12,10,10,51,5.30
2006,12,10,10,52,5.30
2006,12,10,10,53,5.30
2006,12,10,10,54,5.40
2006,12,10,10,55,5.40
2006,12,10,10,56,5.50
2006,12,10,10,57,5.50
2006,12,10,10,58,5.50
2006,12,10,10,59,5.50
2006,12,10,11,00,5.50
2006,12,10,11,01,5.50
2006,12,10,11,02,5.50
2006,12,10,11,03,5.50
2006,12,10,11,04,5.50
2006,12,10,11,05,5.50
2006,12,10,11,06,5.60
2006,12,10,11,07,5.60
2006,12,10,11,08,5.60
2006,12,10,11,09,5.50
2006,12,10,11,10,5.50
2006,12,10,11,11,5.50
2006,12,10,11,12,5.50
2006,12,10,11,13,5.50
2006,12,10,11,14,5.50
2006,12,10,11,15,5.50
2006,12,10,11,16,5.50
2006,12,10,11,17,5.40
2006,12,10,11,18,5.40
2006,12,10,11,19,5.40
2006,12,10,11,20,5.40
2006,12,10,11,21,5.40
2006,12,10,11,22,5.40
2006,12,10,11,23,5.40
2006,12,10,11,24,5.40
2006,12,10,11,25,5.40
2006,12,10,11,26,5.40
2006,12,10,11,27,5.40
2006,12,10,11,28,5.30
2006,12,10,11,29,5.30
2006,12,10,11,30,5.30
2006,12,10,11,31,5.30
2006,12,10,11,32,5.30
2006,12,10,11,33,5.30
2006,12,10,11,34,5.30
2006,12,10,11,35,5.30
2006,12,10,11,36,5.30
2006,12,10,11,37,5.30
2006,12,10,11,38,5.30
2006,12,10,11,39,5.30
2006,12,10,11,40,5.30
2006,12,10,11,41,5.30
2006,12,10,11,42,5.30
2006,12,10,11,43,5.30
2006,12,10,11,44,5.20
2006,12,10,11,45,5.20
2006,12,10,11,46,5.20
2006,12,10,11,47,5.20
2006,12,10,11,48,5.20
2006,12,10,11,49,5.10
2006,12,10,11,50,5.10
2006,12,10,11,51,5.10
2006,12,10,11,52,5.10
2006,12,10,11,53,5.10
2006,12,10,11,54,5.10
2006,12,10,11,55,5.10
2006,12,10,11,56,5.10
2006,12,10,11,57,5.10
2006,12,10,11,58,5.00
2006,12,10,11,59,5.00
2006,12,10,12,00,5.00
2006,12,10,12,01,5.00
2006,12,10,12,02,5.00
2006,12,10,12,03,5.00
2006,12,10,12,04,5.00
2006,12,10,12,05,5.00
2006,12,10,12,06,5.00
2006,12,10,12,07,5.10
2006,12,10,12,08,5.10
2006,12,10,12,09,5.10
2006,12,10,12,10,5.00
2006,12,10,12,11,5.00
2006,12,10,12,12,5.00
2006,12,10,12,13,5.00
2006,12,10,12,14,5.00
2006,12,10,12,15,5.00
2006,12,10,12,16,5.10
2006,12,10,12,17,5.10
2006,12,10,12,18,5.10
2006,12,10,12,19,5.00
2006,12,10,12,20,5.00
2006,12,10,12,21,5.00
2006,12,10,12,22,5.10
2006,12,10,12,23,5.10
2006,12,10,12,24,5.10
2006,12,10,12,25,5.10
2006,12,10,12,26,5.10
2006,12,10,12,27,5.10
2006,12,10,12,28,5.10
2006,12,10,12,29,5.10
2006,12,10,12,30,5.10
2006,12,10,12,31,5.20
2006,12,10,12,32,5.20
2006,12,10,12,33,5.20
2006,12,10,12,34,5.20
2006,12,10,12,35,5.20
2006,12,10,12,36,5.20
2006,12,10,12,37,5.20
2006,12,10,12,38,5.20
2006,12,10,12,39,5.20
2006,12,10,12,40,5.20
2006,12,10,12,41,5.20
2006,12,10,12,42,5.20
2006,12,10,12,43,5.20
2006,12,10,12,44,5.20
2006,12,10,12,45,5.20
2006,12,10,12,46,5.30
2006,12,10,12,47,5.30
2006,12,10,12,48,5.20
2006,12,10,12,49,5.20
2006,12,10,12,50,5.20
2006,12,10,12,51,5.10
2006,12,10,12,52,5.10
2006,12,10,12,53,5.10
2006,12,10,12,54,5.10
2006,12,10,12,55,5.20
2006,12,10,12,56,5.20
2006,12,10,12,57,5.20
2006,12,10,12,58,5.20
2006,12,10,12,59,5.30
2006,12,10,13,00,5.30
2006,12,10,13,01,5.30
2006,12,10,13,02,5.40
2006,12,10,13,03,5.40
2006,12,10,13,04,5.40
2006,12,10,13,05,5.40
2006,12,10,13,06,5.40
2006,12,10,13,07,5.40
2006,12,10,13,08,5.30
2006,12,10,13,09,5.30
2006,12,10,13,10,5.30
2006,12,10,13,11,5.30
2006,12,10,13,12,5.30
2006,12,10,13,13,5.30
2006,12,10,13,14,5.40
2006,12,10,13,15,5.40
2006,12,10,13,16,5.40
2006,12,10,13,17,5.40
2006,12,10,13,18,5.40
2006,12,10,13,19,5.40
2006,12,10,13,20,5.40
2006,12,10,13,21,5.50
2006,12,10,13,22,5.50
2006,12,10,13,23,5.50
2006,12,10,13,24,5.50
2006,12,10,13,25,5.50
2006,12,10,13,26,5.50
2006,12,10,13,27,5.50
2006,12,10,13,28,5.50
2006,12,10,13,29,5.50
2006,12,10,13,30,5.60
2006,12,10,13,31,5.60
2006,12,10,13,32,5.60
2006,12,10,13,33,5.60
2006,12,10,13,34,5.60
2006,12,10,13,35,5.60
2006,12,10,13,36,5.60
2006,12,10,13,37,5.60
2006,12,10,13,38,5.60
2006,12,10,13,39,5.60
2006,12,10,13,40,5.60
2006,12,10,13,41,5.60
2006,12,10,13,42,5.60
2006,12,10,13,43,5.50
2006,12,10,13,44,5.50
2006,12,10,13,45,5.50
2006,12,10,13,46,5.50
2006,12,10,13,47,5.50
2006,12,10,13,48,5.60
2006,12,10,13,49,5.60
2006,12,10,13,50,5.60
2006,12,10,13,51,5.60
2006,12,10,13,52,5.60
2006,12,10,13,53,5.60
2006,12,10,13,54,5.60
2006,12,10,13,55,5.60
2006,12,10,13,56,5.60
2006,12,10,13,57,5.60
2006,12,10,13,58,5.60
2006,12,10,13,59,5.60
2006,12,10,14,00,5.60
2006,12,10,14,01,5.60
2006,12,10,14,02,5.60
2006,12,10,14,03,5.60
2006,12,10,14,04,5.60
2006,12,10,14,05,5.60
2006,12,10,14,06,5.60
2006,12,10,14,07,5.60
2006,12,10,14,08,5.60
2006,12,10,14,09,5.60
2006,12,10,14,10,5.60
2006,12,10,14,11,5.50
2006,12,10,14,12,5.50
2006,12,10,14,13,5.40
2006,12,10,14,14,5.40
2006,12,10,14,15,5.50
2006,12,10,14,16,5.50
2006,12,10,14,17,5.50
2006,12,10,14,18,5.50
2006,12,10,14,19,5.50
2006,12,10,14,20,5.40
2006,12,10,14,21,5.40
2006,12,10,14,22,5.30
2006,12,10,14,23,5.30
2006,12,10,14,24,5.30
2006,12,10,14,25,5.30
2006,12,10,14,26,5.40
2006,12,10,14,27,5.40
2006,12,10,14,28,5.40
2006,12,10,14,29,5.40
2006,12,10,14,30,5.40
2006,12,10,14,31,5.40
2006,12,10,14,32,5.40
2006,12,10,14,33,5.40
2006,12,10,14,34,5.40
2006,12,10,14,35,5.40
2006,12,10,14,36,5.40
2006,12,10,14,37,5.40
2006,12,10,14,38,5.40
2006,12,10,14,39,5.40
2006,12,10,14,40,5.40
2006,12,10,14,41,5.50
2006,12,10,14,42,5.50
2006,12,10,14,43,5.50
2006,12,10,14,44,5.60
2006,12,10,14,45,5.60
2006,12,10,14,46,5.50
2006,12,10,14,47,5.50
2006,12,10,14,48,5.50
2006,12,10,14,49,5.40
2006,12,10,14,50,5.40
2006,12,10,14,51,5.40
2006,12,10,14,52,5.40
2006,12,10,14,53,5.40
2006,12,10,14,54,5.50
2006,12,10,14,55,5.50
2006,12,10,14,56,5.50
2006,12,10,14,57,5.50
2006,12,10,14,58,5.50
2006,12,10,14,59,5.50
2006,12,10,15,00,5.50
2006,12,10,15,01,5.50
2006,12,10,15,02,5.60
2006,12,10,15,03,5.50
2006,12,10,15,04,5.50
2006,12,10,15,05,5.50
2006,12,10,15,06,5.50
2006,12,10,15,07,5.40
2006,12,10,15,08,5.40
2006,12,10,15,09,5.40
2006,12,10,15,10,5.30
2006,12,10,15,11,5.30
2006,12,10,15,12,5.30
2006,12,10,15,13,5.30
2006,12,10,15,14,5.30
2006,12,10,15,15,5.30
2006,12,10,15,16,5.30
2006,12,10,15,17,5.30
2006,12,10,15,18,5.30
2006,12,10,15,19,5.30
2006,12,10,15,20,5.30
2006,12,10,15,21,5.30
2006,12,10,15,22,5.30
2006,12,10,15,23,5.30
2006,12,10,15,24,5.40
2006,12,10,15,25,5.40
2006,12,10,15,26,5.40
2006,12,10,15,27,5.40
2006,12,10,15,28,5.50
2006,12,10,15,29,5.50
2006,12,10,15,30,5.40
2006,12,10,15,31,5.30
2006,12,10,15,32,5.30
2006,12,10,15,33,5.30
2006,12,10,15,34,5.30
2006,12,10,15,35,5.20
2006,12,10,15,36,5.20
2006,12,10,15,37,5.20
2006,12,10,15,38,5.30
2006,12,10,15,39,5.30
2006,12,10,15,40,5.30
2006,12,10,15,41,5.30
2006,12,10,15,42,5.30
2006,12,10,15,43,5.30
2006,12,10,15,44,5.30
2006,12,10,15,45,5.30
2006,12,10,15,46,5.30
2006,12,10,15,47,5.30
2006,12,10,15,48,5.30
2006,12,10,15,49,5.30
2006,12,10,15,50,5.30
2006,12,10,15,51,5.30
2006,12,10,15,52,5.30
2006,12,10,15,53,5.30
2006,12,10,15,54,5.30
2006,12,10,15,55,5.30
2006,12,10,15,56,5.30
2006,12,10,15,57,5.30
2006,12,10,15,58,5.30
2006,12,10,15,59,5.30
2006,12,10,16,00,5.40
2006,12,10,16,01,5.40
2006,12,10,16,02,5.40
2006,12,10,16,03,5.40
2006,12,10,16,04,5.30
2006,12,10,16,05,5.20
2006,12,10,16,06,5.20
2006,12,10,16,07,5.10
2006,12,10,16,08,5.00
2006,12,10,16,09,4.90
2006,12,10,16,10,4.90
2006,12,10,16,11,4.90
2006,12,10,16,12,4.90
2006,12,10,16,13,4.90
2006,12,10,16,14,5.00
2006,12,10,16,15,5.00
2006,12,10,16,16,5.00
2006,12,10,16,17,4.90
2006,12,10,16,18,4.90
2006,12,10,16,19,4.90
2006,12,10,16,20,4.90
2006,12,10,16,21,4.90
2006,12,10,16,22,5.00
2006,12,10,16,23,5.00
2006,12,10,16,24,5.10
2006,12,10,16,25,5.10
2006,12,10,16,26,5.10
2006,12,10,16,27,5.10
2006,12,10,16,28,5.00
2006,12,10,16,29,5.00
2006,12,10,16,30,5.00
2006,12,10,16,31,4.90
2006,12,10,16,32,4.90
2006,12,10,16,33,4.90
2006,12,10,16,34,5.00
2006,12,10,16,35,5.00
2006,12,10,16,36,5.10
2006,12,10,16,37,5.10
2006,12,10,16,38,5.10
2006,12,10,16,39,5.10
2006,12,10,16,40,5.10
2006,12,10,16,41,5.10
2006,12,10,16,42,5.10
2006,12,10,16,43,5.10
2006,12,10,16,44,5.00
2006,12,10,16,45,5.00
2006,12,10,16,46,5.00
2006,12,10,16,47,5.00
2006,12,10,16,48,4.90
2006,12,10,16,49,4.90
2006,12,10,16,50,4.90
2006,12,10,16,51,5.00
2006,12,10,16,52,5.00
2006,12,10,16,53,4.90
2006,12,10,16,54,4.90
2006,12,10,16,55,4.90
2006,12,10,16,56,4.80
2006,12,10,16,57,4.80
2006,12,10,16,58,4.90
2006,12,10,16,59,5.00
2006,12,10,17,00,5.00
2006,12,10,17,01,5.10
2006,12,10,17,02,5.00
2006,12,10,17,03,5.00
2006,12,10,17,04,4.90
2006,12,10,17,05,4.80
2006,12,10,17,06,4.80
2006,12,10,17,07,4.80
2006,12,10,17,08,4.70
2006,12,10,17,09,4.60
2006,12,10,17,10,4.70
2006,12,10,17,11,4.70
2006,12,10,17,12,4.60
2006,12,10,17,13,4.50
2006,12,10,17,14,4.50
2006,12,10,17,15,4.40
2006,12,10,17,16,4.40
2006,12,10,17,17,4.30
2006,12,10,17,18,4.30
2006,12,10,17,19,4.20
2006,12,10,17,20,4.20
2006,12,10,17,21,4.20
2006,12,10,17,22,4.20
2006,12,10,17,23,4.20
2006,12,10,17,24,4.20
2006,12,10,17,25,4.20
2006,12,10,17,26,4.20
2006,12,10,17,27,4.20
2006,12,10,17,28,4.30
2006,12,10,17,29,4.30
2006,12,10,17,30,4.30
2006,12,10,17,31,4.30
2006,12,10,17,32,4.30
2006,12,10,17,33,4.30
2006,12,10,17,34,4.30
2006,12,10,17,35,4.30
2006,12,10,17,36,4.20
2006,12,10,17,37,4.20
2006,12,10,17,38,4.20
2006,12,10,17,39,4.20
2006,12,10,17,40,4.20
2006,12,10,17,41,4.20
2006,12,10,17,42,4.10
2006,12,10,17,43,4.10
2006,12,10,17,44,4.10
2006,12,10,17,45,4.00
2006,12,10,17,46,4.00
2006,12,10,17,47,4.10
2006,12,10,17,48,4.30
2006,12,10,17,49,4.30
2006,12,10,17,50,4.30
2006,12,10,17,51,4.40
2006,12,10,17,52,4.40
2006,12,10,17,53,4.30
2006,12,10,17,54,4.30
2006,12,10,17,55,4.40
2006,12,10,17,56,4.40
2006,12,10,17,57,4.40
2006,12,10,17,58,4.40
2006,12,10,17,59,4.40
2006,12,10,18,00,4.40
2006,12,10,18,01,4.30
2006,12,10,18,02,4.40
2006,12,10,18,03,4.50
2006,12,10,18,04,4.60
2006,12,10,18,05,4.70
2006,12,10,18,06,4.70